SL-14 DEB, 45301

Orbit data source: Space-Track

SL-14 DEB, 45301 is space debris in LEO originally from a launch on Thu, 15 Aug 1991 UTC launched from the Plesetsk Missile And Space Complex (PKMTR). Debris objects in space refer to the collection of defunct objects orbiting the Earth. Examples of debris include non-operational satellites, rocket bodies, and fragments generated from explosions, collisions, or faulty payload assembly.

Loading next visibility...
Identifier
45301, 1991-056AP
Orbit
LEO
Country
Flag of CISCIS
Related business
Manufacturer
Unknown
Mission
Spacecraft
Bus & Motor
Unknown
Mass
Unknown
Launch date (UTC)
1991-08-15 (35 years ago)
Launch vehicle
Unknown
Launch site
Plesetsk Missile And Space Complex (PKMTR)
Object type
Payload
Rocket body
Debris
Shape & HBR
Unknown shape, 0.6 m
Radar Cross Section
Medium (>0.1 m² and <1 m²)

Expand to show TLE details & history
Last TLE update: 21 hours ago

TLE from 21 hours ago
0 SL-14 DEB
1 45301U 91056AP  26197.49991551  .00007107  00000-0  86071-2 0  9991
2 45301  82.5018 358.4270 0140903 315.6877  43.3059 13.62070161316935
Epoch: 2026-07-16T11:59Z
TLE epoch observation values (Epoch: 2026-07-16T11:59:52.700Z)
Latitude
0.00005°
Longitude
-115.88306°
Altitude
955.796 km
Speed
7.411 km/s
True Right ascension
23h 53m 42s
True Declination
0° 00' 00"
Sunlit
Object was in daylight at epoch
Visualization orbit readout
Latitude
Unknown
Longitude
Unknown
Altitude
Unknown
Speed
Unknown
Apparent Right ascension
Unknown
Apparent Declination
Unknown
Sunlit
N/A
Visualization observer readout
Local Sidereal Time
21:36:33
Azimuth
Unknown
Elevation
Unknown
Doppler factor
Unknown
Orbital elements
Apogee altitude
1,129.679 km
Perigee altitude
921.044 km
Semi-major axis
7,403.498 km
Eccentricity
0.01409
Inclination
82.5018°
RAAN
358.427°
Arg. of periapsis
315.6877°
True anomaly
44.42766°
Mean anomaly
43.3059°
Eccentric anomaly
43.86534°
Mean motion
3.40712 °/min
Orbital period
105.66 mins
BSTAR
0.0086071
Loading maneuver chart data...
Computing Atmospheric mass density...
Loading historical data...
Loading historical data...
Loading historical data...
Loading historical data...
Loading historical data...
Loading historical data...
Loading historical data...

Documentation

Showing up to 5 results
|